Location: Ar Ranvel
(48.3000°N, 4.8833°W)
Time: 10:08:09
(UTC+00:00)

Cosmos 2219 Rocket - Pass Details

Date: 16 June 2021
Orbit: 829 x 845 km, 71.0° (Epoch: 01 August)

Event Time Altitude Azimuth Distance (km) Brightness Sun altitude
Exits shadow 21:24:22 10° 138° (SE) 2,463 3.9 -8.2°
Maximum altitude 21:27:56 17° 99° (E) 1,995 3.7 -8.6°
Drops below altitude 10° 21:31:31 10° 59° (ENE) 2,473 4.6 -9.0°
Sets 21:34:46 0° 41° (NE) 3,412 5.5 -9.3°
